Home   Weather   Port Macquarie   Past weeks
Flag for Australia

Past Weather in Port Macquarie, New South Wales, Australia — Yesterday and Last 2 Weeks

Now
57 °F

Overcast.


Feels Like: 57 °F
Forecast: 72 / 50 °F
Wind: 3 mph from Northwest

Location: Port Macquarie Airport

Current Time: Oct 14, 2019 at 9:42:56 am

Latest Report: Oct 14, 2019 at 9:00 am


Visibility: N/A

Pressure: 30.09 "Hg

Humidity: 84%

Dew Point: 52 °F

Location of Port MacquarieLocation

Past Weather in Port Macquarie — Graph

°F

Port Macquarie Temperature Yesterday

Maximum temperature yesterday: 67 °F (at 12:00 pm)
Minimum temperature yesterday: 51 °F (at 10:00 pm)
Average temperature yesterday: 59 °F

High & Low Weather Summary for the Past Weeks

 TemperatureHumidityPressure
High89 °F (Oct 7, 1:00 pm)100% (Oct 3, 6:00 am)30.45 "Hg (Oct 3, 6:00 am)
Low42 °F (Sep 29, 6:00 am)29% (Oct 7, 1:00 pm)29.75 "Hg (Oct 8, 3:00 pm)
Average62 °F77%30.12 "Hg
* Reported Sep 29 6:00 am — Oct 14 7:00 am, Port Macquarie. Weather by CustomWeather, © 2019

Note: Actual official high and low records may vary slightly from our data, if they occured in-between our weather recording intervals... More about our weather records

Advertising

Port Macquarie Weather History for the Previous 24 Hours

Scroll right to see more
 ConditionsComfort  
Time TempWeatherWind HumidityBarometerVisibility
7:00 am
Mon, Oct 14
51 °FCool.3 mph98%30.07 "HgN/A
6:00 am48 °FOvercast.No wind98%30.05 "HgN/A
4:00 am47 °FCool.No wind97%30.07 "HgN/A
3:00 am48 °FCool.No wind97%30.09 "HgN/A
1:00 am47 °FCool.No wind95%30.13 "HgN/A
12:00 am48 °FCool.No wind94%30.15 "Hg3 mi
10:00 pm
Sun, Oct 13
51 °FCool.No wind87%30.15 "HgN/A
9:00 pm53 °FPassing clouds.No wind86%30.14 "HgN/A
7:00 pm60 °FCool.6 mph66%30.11 "HgN/A
6:00 pm64 °FMild.9 mph55%30.09 "HgN/A
4:00 pm66 °FMild.13 mph50%30.07 "HgN/A
3:00 pm65 °FOvercast.12 mph54%30.09 "HgN/A
1:00 pm66 °FMild.14 mph58%30.11 "HgN/A
12:00 pm67 °FOvercast.14 mph58%30.11 "HgN/A
10:00 am64 °FMild.12 mph69%30.13 "HgN/A
9:00 am59 °FOvercast.10 mph85%30.13 "HgN/A
Weather by CustomWeather, © 2019

See weather overview